Home   Weather   Houston   Past weeks

Flag for USA Past Weather in Houston, Texas, USA — Yesterday and Last 2 Weeks

Now
81 °F

Scattered clouds.


Feels Like: 87 °F
Forecast: 82 / 99 °F
Wind: 3 mph from Southwest

Location: Houston Hobby Airport

Current Time: Aug 18, 2017 at 8:01:45 am

Latest Report: Aug 18, 2017 at 6:53 am


Visibility: 10 mi

Pressure: 30.01 "Hg

Humidity: 85%

Dew Point: 76 °F

Location of HoustonLocation

Past Weather in Houston — Graph

°F

Houston Temperature Yesterday

Maximum temperature yesterday: 98 °F (at 2:53 pm)
Minimum temperature yesterday: 82 °F (at 6:53 am)
Average temperature yesterday: 89 °F

High & Low Weather Summary for the Past Weeks

 TemperatureHumidityPressure
High98 °F (Aug 12, 3:53 pm)90% (Aug 10, 5:53 am)30.11 "Hg (Aug 10, 5:53 am)
Low77 °F (Aug 5, 12:53 am)40% (Aug 15, 2:53 pm)29.82 "Hg (Aug 14, 4:53 pm)
Average86 °F71%29.96 "Hg
* Reported Aug 3 5:53 am — Aug 18 5:53 am, Houston. Weather by CustomWeather, © 2017

Note: Actual official high and low records may vary slightly from our data, if they occured in-between our weather recording intervals... More about our weather records

Advertising

Houston Weather History for the Previous 24 Hours

Scroll right to see more
 ConditionsComfort  
Time TempWeatherWind HumidityBarometerVisibility
5:53 am
Fri, Aug 18
81 °FPassing clouds.No wind85%30.01 "Hg10 mi
4:53 am81 °FClear.3 mph85%30.00 "Hg10 mi
3:53 am81 °FClear.No wind85%30.01 "Hg10 mi
2:53 am81 °FClear.5 mph85%30.01 "Hg10 mi
1:53 am82 °FClear.7 mph82%30.03 "Hg10 mi
12:53 am83 °FClear.5 mph79%30.04 "Hg10 mi
11:53 pm
Thu, Aug 17
84 °FPassing clouds.5 mph80%30.04 "Hg10 mi
10:53 pm84 °FClear.6 mph77%30.03 "Hg10 mi
9:53 pm84 °FPassing clouds.9 mph77%30.01 "Hg10 mi
8:53 pm87 °FPassing clouds.7 mph65%30.00 "Hg10 mi
7:53 pm89 °FPassing clouds.8 mph55%29.97 "Hg10 mi
6:53 pm93 °FScattered clouds.12 mph50%29.95 "Hg10 mi
5:53 pm95 °FScattered clouds.12 mph47%29.96 "Hg10 mi
4:53 pm96 °FScattered clouds.9 mph44%29.97 "Hg10 mi
3:53 pm98 °FScattered clouds.10 mph40%29.99 "Hg10 mi
2:53 pm98 °FScattered clouds.9 mph42%30.02 "Hg10 mi
1:53 pm97 °FScattered clouds.10 mph43%30.04 "Hg10 mi
12:53 pm96 °FScattered clouds.9 mph46%30.05 "Hg10 mi
11:53 am95 °FScattered clouds.8 mph47%30.06 "Hg10 mi
10:53 am92 °FScattered clouds.13 mph56%30.07 "Hg10 mi
9:53 am90 °FScattered clouds.13 mph61%30.06 "Hg10 mi
8:53 am87 °FPassing clouds.10 mph72%30.04 "Hg10 mi
Weather by CustomWeather, © 2017

See weather overviewHow to use our weather pages